Retour au catalogue

FENGYUN 1C DEB

ActifSSO
NORAD 35244·DEBRIS·🇨🇳 China

Lancé May 10, 1999 depuis Taiyuan Satellite Launch Center

Loading…

Prochains Passages (prochaines 24 heures)

TLE

FraisSource: Space-Track

Époque: Sep 14, 2026, 13:58 UTC

1 35244U 99025DRC 26257.58196164  .00000370  00000-0  24077-3 0  9998
2 35244  98.8121 296.1654 0072239 102.6813 258.2444 14.07082657697007

Suivez FENGYUN 1C DEB en temps réel avec AllMySat

Download on the App Store